Flag for Australia Weather past 2 weeks in Traralgon, Victoria, Australia

Now
52 °F

Cool.


Feels Like: 50 °F
Forecast: 47 / 91 °F
Wind: 6 mph from Northeast

Location: Latrobe Valley Airport

Current Time: Oct 21, 2014 at 11:36:25 PM

Latest Report: Oct 21, 2014 at 10:00 PM


Visibility: N/A

Pressure: 30.29 "Hg

Humidity: 89%

Dew point: 49 °F

Location of TraralgonLocation

Historic Weather in Traralgon — Graph

°F

Traralgon temperature yesterday

Maximum temperature yesterday: 62 °F (at 12:00 PM)
Minimum temperature yesterday: 40 °F (at 6:00 AM)
Average temperature yesterday: 53 °F

Past Weeks' High & Low Weather Summary

 TemperatureHumidityPressure
High84 °F (Oct 19, 4:00 PM)100% (Oct 6, 10:00 PM)30.47 "Hg (Oct 6, 10:00 PM)
Low39 °F (Oct 15, 7:00 AM)24% (Oct 19, 4:00 PM)29.53 "Hg (Oct 6, 10:00 PM)
Average55 °F79%30.10 "Hg
* Reported Oct 6 10:00 PM — Oct 21 10:00 PM, Traralgon, Weather by CustomWeather, © 2014

Note: Actual official high and low records may vary slightly from our data, if they occured in-between our weather recording intervals... More about our weather records

Advertising

Traralgon weather history for previous 24 hours

 ConditionsComfort  
Time TempWeatherWind HumidityBarometerVisibility
10:00 PM
Oct 21
52 °FCool.6 mph89%30.29 "HgN/A
9:00 PM56 °FCool.5 mph81%30.28 "HgN/A
7:00 PM63 °FMild.10 mph63%30.27 "HgN/A
6:00 PM66 °FMild.10 mph56%30.27 "HgN/A
4:00 PM70 °FMild.10 mph53%30.28 "HgN/A
3:00 PM70 °FMild.12 mph55%30.29 "HgN/A
1:00 PM68 °FMild.12 mph61%30.34 "HgN/A
12:00 PM65 °FMild.12 mph65%30.36 "HgN/A
10:00 AM59 °FCool.12 mph65%30.40 "HgN/A
9:00 AM56 °FCool.13 mph69%30.40 "HgN/A
7:00 AM49 °FCool.9 mph88%30.38 "HgN/A
6:00 AM47 °FCool.8 mph90%30.37 "HgN/A
4:00 AM51 °FCool.10 mph84%30.36 "HgN/A
3:00 AM52 °FPassing clouds.9 mph81%30.37 "HgN/A
1:00 AM51 °FCool.9 mph78%30.42 "HgN/A
12:00 AM51 °FPassing clouds.10 mph76%30.44 "HgN/A
Weather by CustomWeather, © 2014

See weather overviewHow to use our weather pages